STARLINK-11555, 62915

Orbit data source: Space-Track

STARLINK-11555, 62915 is a payload satellite owned by SpaceX/Seattle (US) in LEO that was launched on Sat, 08 Feb 2025 UTC via an FALCON 9 launch vehicle from the Air Force Eastern Test Range (AFETR). Payload-class satellites include a variety of spacecraft equipped with specific instruments for various scientific and technological missions. These include communications satellites like Starlink; space stations such as the ISS; scientific satellites like the Hubble; Earth observation satellites from companies like Planet Labs, Umbra, and HawkEye 360; GPS; miniature CubeSats for education and research; and military/defense satellites.

Loading next visibility...
Identifier
62915, 2025-027J
Orbit
LEO
Last TLE update
1 day ago
Origin
Manufacturer
SpaceX/Seattle
Mission
Operational Commercial Communications
Bus & Motor
STARLINK V2M, Unknown motor
Mass
730 kg wet, ~700 kg dry
Launch date (UTC)
2025-02-08 (3 months ago)
Launch vehicle
FALCON 9
Launch site
Air Force Eastern Test Range (AFETR)
Object type
Payload
Rocket body
Debris
Shape & HBR
Box + 2 Pan, 29 m
Radar Cross Section
36.964 m², Large (>1 m²)

Expand to show TLE details & history

TLE from 1 day ago
0 STARLINK-11555
1 62915U 25027J   25128.07452840  .00000513  00000-0  74924-5 0  9997
2 62915  43.0017  30.0973 0001331 277.1523  82.9193 15.70826923 15121
Epoch: 2025-05-08T01:47Z
Definitive object data (Epoch: 2025-05-08T01:47:19.253Z)
Latitude
-0.00005°
Longitude
137.11678°
Altitude
356.193 km
Speed
7.697 km/s
True Right ascension
02h 00m 23s
True Declination
0° 00' 00"
Sunlit
Object was in daylight at TLE epoch
Visualization TLE readout
Latitude
36.13836°
Longitude
-179.09529°
Altitude
358.8 km
Speed
7.699 km/s
Apparent Right ascension
04h 06m 05s
Apparent Declination
0° 40' 28"
Sunlit
Object is in daylight
Visualization observer readout
Local Sidereal Time
15:11:00
Azimuth
338.815° N
Elevation
-48.802°
Doppler factor
1
Orbital elements
Apogee altitude
359.41 km
Perigee altitude
357.617 km
Semi-major axis
6,736.651 km
Eccentricity
0.0001331
Inclination
43.0017°
RAAN
30.0973°
Arg. of periapsis
277.1523°
True anomaly
82.93444°
Mean anomaly
82.9193°
Eccentric anomaly
82.92687°
Mean motion
3.92534 °/min
BSTAR
0.0000074924
Orbital period
91.71 mins
Loading maneuver chart data...
Loading SW <> Apogee altitude chart data...
Loading historical data...
Loading historical data...
Loading historical data...
Loading historical data...
Loading historical data...
Loading historical data...
Loading historical data...

STARLINK-11555 Visibility forecast

Observer location: undefined°, undefined°

Span
Click to sort rows by Start time (UTC) header in descending order
Start Az.
Max El. time (UTC)
Max El. Az.
Max El.
End time (UTC)
End Az.
5 mins2025-05-09 20:45:04.383Z231.113° WSW2025-05-09 20:47:04.383Z176.361° S38.264°2025-05-09 20:50:04.383Z78.072° E
4 mins2025-05-09 22:22:04.383Z290.137° WNW2025-05-09 22:23:04.383Z325.713° NNW34.989°2025-05-09 22:26:04.383Z68.112° E
4 mins2025-05-09 23:58:04.383Z298.944° NW2025-05-10 00:00:04.383Z36.324° NE37.614°2025-05-10 00:02:04.383Z86.284° E
4 mins2025-05-10 01:34:04.383Z269.007° W2025-05-10 01:36:04.383Z193.685° SSW32.242°2025-05-10 01:38:04.383Z139.608° SSE
|